[[{"header":{"parameterUnit":"m.s-1","parameterCategory":1,"la1":30.2991,"la2":30.254,"lo1":-89.0895,"lo2":-89.0444,"dy":0.0017,"dx":0.0017,"nx":28,"ny":28,"refTime":"2025-01-17T09:00:00:Z","depth":0,"parameterNumber":2,"parameterNumberName":"U-component_of_WINDS"},"data":[0,0,0,0,0,0,0,0,0,0,0,0,0,0,0,0,0,0,0,0,0,0,0,0,0,0,0,0,0,0,0,0,0,0,0,0,0,0,0,0,0,0,0,0,0,0,0,0,0,0,0,0,0,0,0,0,0,0,2.728,2.728,0,2.7286,2.7287,2.7287,2.7213,2.7211,2.7209,2.7207,2.7219,2.7221,2.7223,0,0,0,0,0,0,0,0,0,0,0,0,0,2.721,2.7211,2.728,2.728,2.728,2.7286,2.7287,2.7287,2.7214,2.7211,2.7209,2.7207,2.7218,2.7221,2.7223,0,0,0,0,0,0,0,0,0,0,0,0,0,2.7231,2.7212,2.728,2.7244,2.7241,2.7286,2.7287,2.7287,2.7214,2.7211,2.7208,2.7205,2.7217,2.722,2.7224,2.7305,0,0,2.7234,2.7235,0,0,0,0,0,0,0,0,2.723,2.7233,2.7249,2.7247,2.7243,2.7246,2.7266,2.7293,2.7215,2.7225,2.7207,2.7204,2.7231,2.7233,2.7241,2.7305,2.7306,2.7234,2.7236,2.7237,2.7238,0,0,0,0,0,0,0,2.7228,2.7233,2.7283,2.725,2.7246,2.723,2.7229,2.7271,2.7245,2.7224,2.7218,2.722,2.7228,2.7238,2.724,2.7306,2.7234,2.7237,2.7239,2.724,2.744,2.7443,0,0,0,0,0,0,2.7231,2.7232,2.7282,2.7283,2.7229,2.7234,2.7233,2.7248,2.7244,2.724,2.7222,2.7216,2.7234,2.7237,2.7241,2.7337,2.7237,2.724,2.7242,2.7437,2.7441,2.7444,0,0,0,0,0,0,2.723,2.7236,2.7282,2.7256,2.726,2.7238,2.7256,2.725,2.7259,2.7243,2.7239,2.7236,2.7231,2.7236,2.729,2.7336,2.7242,2.7245,2.7433,2.7438,2.7443,2.7529,0,0,0,0,0,0,2.7228,2.7236,2.7265,2.7257,2.7262,2.733,2.7258,2.7252,2.7264,2.7257,2.7255,2.7252,2.7229,2.7285,2.7293,2.7339,2.7247,2.7429,2.7435,2.7441,2.7522,2.7537,2.7549,0,0,0,0,0,2.7226,2.729,2.7267,2.7273,2.7298,2.7332,2.7335,2.7307,2.7268,2.7299,2.7289,2.7252,2.733,2.7291,2.7299,2.7347,2.7425,2.7433,2.7441,2.7516,2.7534,2.7549,0,0,0,0,0,0,2.7305,2.7288,2.7262,2.7325,2.7331,2.732,2.7357,2.7326,2.7344,2.7336,2.7301,2.7301,2.7361,2.7359,2.7317,2.7427,2.7371,2.7381,2.7426,2.7442,2.7456,2.7456,2.725,0,0,0,0,0,2.7329,2.7357,2.7341,2.7399,2.7403,2.738,2.7393,2.7371,2.7376,2.7378,2.7372,2.7379,2.7406,2.7424,2.7447,2.7521,2.7521,2.7558,2.7572,2.7583,2.7592,2.7634,2.7651,2.7469,2.7469,2.7469,0,0,2.7381,2.7375,2.7395,2.7415,2.7416,2.7448,2.7382,2.7418,2.7442,2.7384,2.7434,2.743,2.7437,2.7502,2.753,2.7502,2.7642,2.7593,2.7601,2.7605,2.7643,2.7661,2.7676,2.7474,2.7473,2.7472,0,0,2.7491,2.7489,2.7537,2.754,2.7543,2.7527,2.7539,2.7533,2.7528,2.7578,2.7536,2.7565,2.761,2.7617,2.7626,2.7741,2.7709,2.775,2.782,2.7862,2.7876,2.7889,2.7932,2.7947,2.7759,2.7759,2.7759,0,2.7555,2.76,2.7566,2.7605,2.7616,2.7565,2.7615,2.762,2.7631,2.7641,2.7608,2.7665,2.7666,2.7733,2.7761,2.777,2.7784,2.775,2.7876,2.7889,2.79,2.7941,2.7957,2.7764,2.7763,2.7763,2.7762,0,2.768,2.7711,2.775,2.7761,2.7777,2.7821,2.7797,2.7816,2.7793,2.7782,2.7835,2.7834,2.7857,2.7871,2.7848,2.7936,2.7918,2.7882,2.7825,2.7923,2.7961,2.7976,2.7771,2.7769,2.7768,2.7767,0,0,2.784,2.7832,2.7848,2.7853,2.7853,2.7878,2.7921,2.7943,2.7962,2.7971,2.8008,2.8049,2.8015,2.8026,2.8005,2.8041,2.8135,2.8,2.7999,2.8027,2.8234,2.8262,2.8281,2.8113,2.8116,2.8118,2.8234,0,2.7948,2.802,2.7993,2.8068,2.8098,2.8051,2.8089,2.8094,2.8085,2.8111,2.8102,2.8132,2.8084,2.8091,2.8124,2.8116,2.8176,2.8107,2.8149,2.8151,2.8151,2.83,2.833,2.8439,2.8248,2.8251,2.8252,0,2.8085,2.81,2.8178,2.8175,2.8187,2.8221,2.824,2.8264,2.8271,2.8262,2.8275,2.8246,2.829,2.8233,2.8296,2.825,2.8265,2.8264,2.8268,2.8272,2.8209,2.831,2.8473,2.8491,2.8275,2.8273,2.8272,0,2.8197,2.8236,2.8289,2.8294,2.8291,2.8317,2.8318,2.8321,2.8336,2.8353,2.8363,2.8385,2.8398,2.8417,2.8396,2.8356,2.8462,2.8403,2.8458,2.8459,2.8484,2.8483,2.8654,2.8491,2.8491,2.8491,2.8491,0,2.8322,2.8372,2.8339,2.8371,2.8427,2.8396,2.8452,2.8447,2.8451,2.8483,2.8443,2.8475,2.8444,2.8474,2.8458,2.8513,2.8519,2.8515,2.851,2.8519,2.852,2.853,2.8523,2.8495,2.8494,2.8493,2.8493,0,2.8456,2.8436,2.849,2.8483,2.8483,2.8524,2.8519,2.855,2.8538,2.858,2.8588,2.8571,2.8604,2.8584,2.8617,2.8607,2.868,2.8664,2.8678,2.8674,2.8731,2.8727,2.8916,2.894,2.8761,2.8762,2.8764,0,2.8538,2.8576,2.8573,2.8591,2.8594,2.8624,2.864,2.8611,2.8629,2.864,2.8671,2.87,2.8721,2.8777,2.8768,2.8794,2.878,2.8844,2.8784,2.8792,2.8783,2.8782,2.8787,2.8857,2.8859,2.8861,2.8862,0,2.8687,2.8676,2.8699,2.8719,2.8739,2.8754,2.8766,2.8784,2.8755,2.8778,2.881,2.8827,2.8862,2.8892,2.8915,2.8917,2.8887,2.8881,2.8896,2.8907,2.8914,2.8913,2.8713,2.8878,2.8876,2.8875,2.8874,2.8873,2.8799,2.8831,2.8835,2.8863,2.8869,2.8881,2.891,2.8903,2.8929,2.8954,2.8936,2.8975,2.8983,2.901,2.9016,2.9048,2.9022,2.9043,2.9048,2.9055,2.9063,2.8907,2.9052,2.9051,2.9051,2.9051,2.905,0,2.8948,2.8948,2.8974,2.8992,2.9015,2.8982,2.8994,2.9016,2.905,2.9059,2.9082,2.9121,2.9151,2.9145,2.9172,2.9199,2.9186,2.9208,2.9206,2.9208,2.9084,2.9069,2.9218,2.9218,2.9218,2.9218,2.9218,2.9218,2.9028,2.9081,2.907,2.9127,2.9127,2.9164,2.9174,2.9187,2.9194,2.9239,2.9263,2.9259,2.9263,2.929,2.9317,2.9315,2.9328,2.9355,2.9348,2.9233,2.9216,2.92,2.9187,2.9358,2.9358,2.947,2.9471,2.9471]},{"header":{"parameterUnit":"m.s-1","parameterCategory":1,"la1":30.2991,"la2":30.254,"lo1":-89.0895,"lo2":-89.0444,"dy":0.0017,"dx":0.0017,"nx":28,"ny":28,"refTime":"2025-01-17T09:00:00:Z","depth":0,"parameterNumber":3,"parameterNumberName":"V-component_of_WINDS"},"data":[0,0,0,0,0,0,0,0,0,0,0,0,0,0,0,0,0,0,0,0,0,0,0,0,0,0,0,0,0,0,0,0,0,0,0,0,0,0,0,0,0,0,0,0,0,0,0,0,0,0,0,0,0,0,0,0,0,0,3.6086,3.6087,0,3.6173,3.6174,3.6175,3.6153,3.6152,3.615,3.6148,3.6239,3.6243,3.6247,0,0,0,0,0,0,0,0,0,0,0,0,0,3.5901,3.5905,3.6086,3.6087,3.6088,3.6173,3.6174,3.6176,3.6154,3.6152,3.6149,3.6147,3.6237,3.6242,3.6247,0,0,0,0,0,0,0,0,0,0,0,0,0,3.5984,3.5906,3.6086,3.6087,3.6088,3.6173,3.6174,3.6176,3.6154,3.6151,3.6149,3.6146,3.6236,3.6242,3.6248,3.6336,0,0,3.6266,3.6269,0,0,0,0,0,0,0,0,3.598,3.5991,3.6086,3.6087,3.6089,3.615,3.6143,3.623,3.6155,3.6129,3.6148,3.6145,3.6211,3.6219,3.6241,3.6341,3.6345,3.6267,3.627,3.6273,3.6275,0,0,0,0,0,0,0,3.5974,3.5987,3.612,3.6087,3.6089,3.6084,3.6093,3.6159,3.6184,3.6131,3.613,3.614,3.6212,3.6236,3.6243,3.6346,3.6266,3.6272,3.6275,3.6278,3.6525,3.6528,0,0,0,0,0,0,3.5967,3.5983,3.6118,3.6123,3.6027,3.609,3.61,3.6133,3.6183,3.6188,3.6142,3.6139,3.6227,3.6236,3.6246,3.6356,3.6273,3.6278,3.6282,3.6522,3.6526,3.6529,0,0,0,0,0,0,3.5963,3.5979,3.6114,3.6053,3.6069,3.6096,3.6133,3.6136,3.616,3.6191,3.6196,3.6162,3.6225,3.6238,3.6315,3.6358,3.6281,3.6287,3.6519,3.6523,3.6527,3.6574,0,0,0,0,0,0,3.5958,3.5978,3.6011,3.6053,3.6073,3.6181,3.6136,3.6139,3.617,3.6166,3.6211,3.6216,3.6224,3.6306,3.6321,3.6365,3.6291,3.6515,3.6521,3.6526,3.6569,3.6579,3.6588,0,0,0,0,0,3.5951,3.602,3.6013,3.603,3.6115,3.6183,3.6194,3.6201,3.6174,3.6208,3.6229,3.6215,3.6351,3.6314,3.633,3.6378,3.6512,3.6519,3.6526,3.6564,3.6577,3.6588,0,0,0,0,0,0,3.5983,3.6026,3.6018,3.6103,3.614,3.6179,3.6223,3.6215,3.626,3.6255,3.6262,3.6272,3.6351,3.6372,3.633,3.6467,3.6428,3.6438,3.6451,3.6464,3.6474,3.6468,3.6296,0,0,0,0,0,3.5999,3.6051,3.6086,3.6157,3.6176,3.6196,3.6226,3.6229,3.6267,3.6282,3.6308,3.6346,3.6398,3.6432,3.6481,3.6571,3.6582,3.6611,3.6621,3.6629,3.6639,3.6691,3.6705,3.6551,3.6551,3.6551,0,0,3.6035,3.6065,3.6096,3.6164,3.6193,3.6247,3.6209,3.6267,3.6308,3.6291,3.6366,3.6387,3.643,3.6514,3.6553,3.6534,3.6684,3.6638,3.6644,3.6649,3.6699,3.6714,3.6726,3.6555,3.6555,3.6554,0,0,3.6127,3.6154,3.6217,3.6247,3.6291,3.6305,3.632,3.6361,3.6375,3.6449,3.6439,3.6487,3.6575,3.6607,3.6635,3.6741,3.673,3.6756,3.6809,3.6859,3.6872,3.6882,3.6923,3.6937,3.6765,3.6765,3.6765,0,3.6165,3.6246,3.6251,3.6311,3.6342,3.6329,3.6395,3.6424,3.6481,3.6504,3.6481,3.6593,3.6621,3.6714,3.674,3.6762,3.6781,3.6752,3.6869,3.688,3.689,3.6929,3.6944,3.6768,3.6768,3.6768,3.6767,0,3.6292,3.6348,3.6394,3.6451,3.6487,3.6549,3.6565,3.6601,3.6601,3.6617,3.6695,3.6728,3.6784,3.6806,3.6806,3.69,3.6887,3.6867,3.6828,3.6908,3.6944,3.6959,3.6773,3.6771,3.6771,3.677,0,0,3.6406,3.6466,3.6483,3.651,3.6559,3.6602,3.6665,3.672,3.6752,3.6792,3.6846,3.6922,3.6904,3.6935,3.6939,3.6983,3.7068,3.6957,3.6959,3.6979,3.7176,3.7193,3.7209,3.706,3.7063,3.7065,3.7173,0,3.6504,3.6614,3.6622,3.6722,3.6775,3.6764,3.6819,3.6855,3.6872,3.692,3.6939,3.6993,3.6964,3.6984,3.7026,3.7048,3.7108,3.704,3.7112,3.7115,3.7104,3.7228,3.7245,3.7346,3.7187,3.719,3.7191,0,3.6633,3.6679,3.6784,3.6827,3.685,3.6899,3.6952,3.6997,3.7038,3.7048,3.7084,3.7082,3.7147,3.7104,3.7195,3.715,3.7179,3.7195,3.7199,3.7207,3.7159,3.7242,3.7377,3.7393,3.7213,3.7212,3.721,0,3.6709,3.6797,3.6872,3.6894,3.6946,3.6981,3.7004,3.7043,3.7076,3.7122,3.7145,3.7197,3.7227,3.7268,3.7281,3.7248,3.7373,3.733,3.7384,3.7384,3.7412,3.741,3.7556,3.7428,3.7427,3.7427,3.7427,0,3.6819,3.6885,3.6907,3.6953,3.7027,3.7035,3.7108,3.7129,3.7164,3.7215,3.7208,3.7257,3.7269,3.732,3.733,3.7406,3.7418,3.7429,3.7431,3.7431,3.743,3.7452,3.7446,3.7431,3.743,3.743,3.7429,0,3.6917,3.6934,3.7016,3.7058,3.707,3.7123,3.7159,3.7205,3.7221,3.7286,3.7301,3.7327,3.7387,3.7403,3.7474,3.7481,3.7571,3.7565,3.7557,3.7558,3.7612,3.7607,3.7778,3.7802,3.7656,3.7657,3.7658,0,3.6987,3.7037,3.7086,3.712,3.7144,3.7199,3.7233,3.7244,3.728,3.7332,3.7372,3.7431,3.7479,3.7575,3.76,3.7656,3.7653,3.7709,3.7661,3.766,3.7657,3.7654,3.7661,3.7719,3.772,3.7721,3.7722,0,3.711,3.7117,3.7167,3.7221,3.7263,3.7306,3.7347,3.7375,3.7391,3.7433,3.7494,3.7532,3.7605,3.7665,3.7721,3.7745,3.7738,3.7737,3.7753,3.7754,3.7748,3.7755,3.7585,3.7734,3.7733,3.7732,3.7731,3.7731,3.7198,3.7243,3.7285,3.7342,3.7374,3.7413,3.7458,3.7481,3.7532,3.7593,3.7596,3.7663,3.7705,3.778,3.7807,3.7861,3.7844,3.7866,3.7872,3.7878,3.7884,3.7738,3.7871,3.787,3.787,3.787,3.7869,0,3.7323,3.735,3.7402,3.746,3.7506,3.7494,3.7539,3.7578,3.7638,3.7677,3.7725,3.7796,3.7854,3.7885,3.7943,3.798,3.7978,3.7995,3.7993,3.8,3.7894,3.7876,3.7996,3.7996,3.7996,3.7996,3.7995,3.7995,3.7394,3.7471,3.7482,3.7576,3.7602,3.7668,3.7695,3.7732,3.7764,3.7844,3.7893,3.7912,3.7949,3.8009,3.8063,3.807,3.8093,3.8112,3.8118,3.802,3.8007,3.7995,3.7978,3.8116,3.8117,3.8219,3.822,3.8221]}]]